Theta_e
300 301 303 303 304 304 305 306 309 311 313 312 314 321 322 321 321 320 318 318 317 317
297 298 298 299 303 303 305 306 305 308 307 308 308 319 321 320 319 319 319 319 319 318
294 296 298 298 299 301 304 302 300 300 300 303 303 307 320 319 319 318 318 318 318 318
291 293 295 296 297 299 300 298 299 298 298 299 300 300 304 305 307 311 303 303 309 301
290 290 292 293 295 296 295 295 296 295 295 296 297 297 298 296 297 298 297 296 297 297
287 288 289 290 292 293 293 293 293 293 292 292 293 293 293 292 291 291 291 292 293 294
285 286 287 289 289 291 291 290 290 290 290 290 290 290 290 289 288 287 287 288 288 289
284 285 286 286 287 287 287 287 287 287 287 287 288 289 288 288 287 286 285 285 286 286
283 284 284 285 285 285 285 286 286 285 285 285 285 287 287 286 284 284 283 282 282 284
281 282 283 284 284 283 284 285 284 284 284 284 285 286 286 285 283 282 282 282 282 281
281 281 282 282 283 283 283 283 283 283 284 284 285 286 285 285 282 282 282 282 281 281
281 281 282 281 282 282 282 282 282 283 283 283 284 286 286 284 282 281 281 281 281 281
281 281 281 282 282 283 283 283 283 283 283 283 283 286 286 284 282 281 281 281 282 283
281 282 282 282 282 282 282 282 281 282 282 283 284 285 286 285 282 281 281 280 280 282
Wind_Speed
7 6 3 3 3 3 3 2 3 2 3 3 9 12 10 9 9 10 9 13 9 6
11 9 8 8 6 4 3 0 3 3 4 4 5 7 13 9 10 11 10 9 9 8
8 7 6 6 8 7 6 2 3 3 4 5 2 7 13 11 10 10 9 9 11 9
7 6 6 5 5 4 5 4 1 2 3 5 4 4 4 7 5 6 5 4 5 6
6 6 5 5 4 3 4 3 1 5 3 3 3 5 6 10 11 10 8 8 7 7
6 6 5 5 4 3 3 3 3 6 5 5 6 9 7 12 12 12 11 9 6 7
5 4 4 3 4 5 4 4 6 9 8 8 9 10 4 14 15 15 11 11 10 9
5 4 4 5 5 7 7 4 10 8 10 9 9 6 8 11 17 14 13 13 13 12
7 7 7 6 7 9 8 8 12 10 11 9 9 16 17 13 16 12 14 13 12 11
8 9 9 8 10 10 9 10 14 10 12 13 11 18 21 20 14 16 13 12 10 10
10 10 10 11 12 12 11 13 11 11 12 13 10 20 23 24 16 17 15 14 10 10
10 10 11 13 14 14 14 13 10 11 13 12 9 21 24 18 13 16 16 12 11 11
11 11 13 15 15 12 12 12 10 12 11 12 12 22 22 18 10 13 10 11 12 20
11 12 13 14 13 11 10 11 12 12 12 14 15 18 22 20 10 8 9 10 8 8
Wind_Direction
4 358 0 354 316 233 208 247 292 271 269 292 311 186 183 189 182 176 189 201 208 193
347 359 4 343 337 342 336 6 345 341 296 276 298 235 180 181 184 191 181 204 204 201
335 350 338 311 303 311 318 354 353 2 313 288 10 322 187 187 184 192 199 208 209 202
320 335 322 296 297 327 326 335 71 62 322 306 26 22 43 92 97 156 94 35 165 87
325 332 316 315 330 347 333 347 10 71 3 29 69 69 76 78 82 80 84 73 75 110
334 329 325 332 341 6 12 25 47 78 41 45 60 55 70 100 94 90 87 67 70 72
340 330 349 353 25 51 53 55 64 53 55 47 64 70 77 96 95 84 83 72 65 61
351 12 32 37 51 63 64 68 75 64 59 51 63 71 92 94 86 90 85 80 70 64
13 26 39 41 58 66 59 71 80 67 68 62 66 88 98 104 92 95 77 79 68 60
32 42 46 54 65 63 61 70 75 69 74 71 72 92 91 89 92 81 71 68 65 66
43 52 55 60 65 67 62 59 61 64 68 73 73 76 77 76 77 79 72 69 66 73
38 56 61 64 60 57 60 59 56 51 56 64 63 70 72 79 79 78 72 70 62 61
27 44 56 55 54 53 58 65 62 59 56 60 63 69 70 65 66 72 69 63 60 67
19 42 46 52 51 54 61 67 60 54 47 51 48 58 68 71 71 79 80 76 73 68